Time,TemperatureF,DewpointF,PressureIn,WindDirection,WindDirectionDegrees,WindSpeedMPH,WindSpeedGustMPH,Humidity,HourlyPrecipIn,Conditions,Clouds,dailyrainin,SoftwareType,DateUTC
2013-11-22 00:03:00,39.4,35.0,30.19,WSW,247,0.0,-999.0,84,-99.99,,,0.00,Acu-Link.com,2013-11-22 05:03:00,
2013-11-22 00:18:00,39.4,35.3,30.19,SSE,157,0.0,-999.0,85,-99.99,,,0.00,Acu-Link.com,2013-11-22 05:18:00,
2013-11-22 00:33:00,39.4,35.0,30.17,East,90,0.0,-999.0,84,-99.99,,,0.00,Acu-Link.com,2013-11-22 05:33:00,
2013-11-22 00:48:00,39.4,35.3,30.16,South,180,0.0,-999.0,85,-99.99,,,0.00,Acu-Link.com,2013-11-22 05:48:00,
2013-11-22 01:03:00,39.4,36.1,30.16,ESE,112,0.0,-999.0,88,-99.99,,,0.00,Acu-Link.com,2013-11-22 06:03:00,
2013-11-22 01:18:00,39.2,36.0,30.15,SSE,157,0.0,-999.0,88,-99.99,,,0.00,Acu-Link.com,2013-11-22 06:18:00,
2013-11-22 01:33:00,39.0,36.3,30.14,SW,225,0.0,-999.0,90,-99.99,,,0.00,Acu-Link.com,2013-11-22 06:33:00,
2013-11-22 01:49:00,39.0,36.6,30.14,ESE,112,0.0,-999.0,91,-99.99,,,0.00,Acu-Link.com,2013-11-22 06:49:00,
2013-11-22 02:04:00,39.0,36.6,30.14,SE,135,0.0,-999.0,91,-99.99,,,0.00,Acu-Link.com,2013-11-22 07:04:00,
2013-11-22 02:19:00,38.8,36.7,30.13,SSE,157,0.0,-999.0,92,-99.99,,,0.00,Acu-Link.com,2013-11-22 07:19:00,
2013-11-22 02:34:00,38.8,37.0,30.13,SW,225,0.0,-999.0,93,-99.99,,,0.00,Acu-Link.com,2013-11-22 07:34:00,
2013-11-22 02:49:00,38.8,37.0,30.13,ESE,112,0.0,-999.0,93,-99.99,,,0.00,Acu-Link.com,2013-11-22 07:49:00,
2013-11-22 03:04:00,38.7,36.9,30.12,ESE,112,0.0,-999.0,93,-99.99,,,0.00,Acu-Link.com,2013-11-22 08:04:00,
2013-11-22 03:19:00,38.7,37.1,30.11,SSE,157,0.0,-999.0,94,-99.99,,,0.00,Acu-Link.com,2013-11-22 08:19:00,
2013-11-22 03:34:00,38.8,37.2,30.11,ESE,112,0.0,-999.0,94,-99.99,,,0.00,Acu-Link.com,2013-11-22 08:34:00,
2013-11-22 03:49:00,38.7,37.1,30.10,SE,135,0.0,-999.0,94,-99.99,,,0.00,Acu-Link.com,2013-11-22 08:49:00,
2013-11-22 04:05:00,38.8,37.2,30.09,SSE,157,0.0,-999.0,94,-99.99,,,0.00,Acu-Link.com,2013-11-22 09:05:00,
2013-11-22 04:20:00,38.8,37.2,30.08,ESE,112,0.0,-999.0,94,-99.99,,,0.00,Acu-Link.com,2013-11-22 09:20:00,
2013-11-22 04:35:00,38.8,37.2,30.08,SSE,157,0.0,-999.0,94,-99.99,,,0.00,Acu-Link.com,2013-11-22 09:35:00,
2013-11-22 04:50:00,38.8,37.2,30.08,ESE,112,0.0,-999.0,94,-99.99,,,0.00,Acu-Link.com,2013-11-22 09:50:00,
2013-11-22 05:05:00,38.7,37.1,30.08,ENE,67,0.0,-999.0,94,-99.99,,,0.00,Acu-Link.com,2013-11-22 10:05:00,
2013-11-22 05:20:00,38.7,37.4,30.07,West,270,0.0,-999.0,95,-99.99,,,0.00,Acu-Link.com,2013-11-22 10:20:00,
2013-11-22 05:35:00,38.7,37.4,30.07,South,180,0.0,-999.0,95,-99.99,,,0.00,Acu-Link.com,2013-11-22 10:35:00,
2013-11-22 05:50:00,38.7,37.4,30.07,SSW,202,0.0,-999.0,95,-99.99,,,0.00,Acu-Link.com,2013-11-22 10:50:00,
2013-11-22 06:05:00,38.8,37.5,30.07,SW,225,0.0,-999.0,95,-99.99,,,0.00,Acu-Link.com,2013-11-22 11:05:00,
2013-11-22 06:21:00,38.8,37.5,30.06,SE,135,0.0,-999.0,95,-99.99,,,0.00,Acu-Link.com,2013-11-22 11:21:00,
2013-11-22 06:36:00,38.8,37.5,30.06,SE,135,0.0,-999.0,95,-99.99,,,0.00,Acu-Link.com,2013-11-22 11:36:00,
2013-11-22 06:51:00,38.8,37.5,30.06,WSW,247,0.0,-999.0,95,-99.99,,,0.00,Acu-Link.com,2013-11-22 11:51:00,
2013-11-22 07:06:00,38.8,37.5,30.06,ESE,112,0.0,-999.0,95,-99.99,,,0.00,Acu-Link.com,2013-11-22 12:06:00,
2013-11-22 07:21:00,38.8,37.5,30.05,SSW,202,0.0,-999.0,95,-99.99,,,0.00,Acu-Link.com,2013-11-22 12:21:00,
2013-11-22 07:36:00,38.8,37.5,30.05,ESE,112,0.0,-999.0,95,-99.99,,,0.00,Acu-Link.com,2013-11-22 12:36:00,
2013-11-22 07:52:00,39.0,37.7,30.05,South,180,0.0,-999.0,95,-99.99,,,0.00,Acu-Link.com,2013-11-22 12:52:00,
2013-11-22 08:07:00,39.2,37.9,30.05,SSE,157,0.0,-999.0,95,-99.99,,,0.00,Acu-Link.com,2013-11-22 13:07:00,
2013-11-22 08:22:00,39.4,38.1,30.04,West,270,0.0,-999.0,95,-99.99,,,0.00,Acu-Link.com,2013-11-22 13:22:00,
2013-11-22 08:37:00,39.7,38.4,30.04,SSE,157,0.0,-999.0,95,-99.99,,,0.00,Acu-Link.com,2013-11-22 13:37:00,
2013-11-22 08:52:00,39.9,38.6,30.04,ENE,67,0.0,-999.0,95,-99.99,,,0.00,Acu-Link.com,2013-11-22 13:52:00,
2013-11-22 09:07:00,40.1,38.8,30.03,SE,135,0.0,-999.0,95,-99.99,,,0.00,Acu-Link.com,2013-11-22 14:07:00,
2013-11-22 09:22:00,40.3,39.0,30.03,SSE,157,0.0,-999.0,95,-99.99,,,0.00,Acu-Link.com,2013-11-22 14:22:00,
2013-11-22 09:38:00,40.5,39.2,30.03,South,180,0.0,-999.0,95,-99.99,,,0.00,Acu-Link.com,2013-11-22 14:38:00,
2013-11-22 09:53:00,40.6,39.0,30.03,SE,135,1.7,-999.0,94,-99.99,,,0.00,Acu-Link.com,2013-11-22 14:53:00,
2013-11-22 10:08:00,40.6,39.0,30.03,ESE,112,0.0,-999.0,94,-99.99,,,0.00,Acu-Link.com,2013-11-22 15:08:00,
2013-11-22 10:23:00,41.0,39.4,30.02,South,180,0.0,-999.0,94,-99.99,,,0.00,Acu-Link.com,2013-11-22 15:23:00,
2013-11-22 10:38:00,41.2,39.6,30.02,SSE,157,0.0,-999.0,94,-99.99,,,0.00,Acu-Link.com,2013-11-22 15:38:00,
2013-11-22 10:53:00,41.4,39.8,30.01,NNE,22,0.0,-999.0,94,-99.99,,,0.00,Acu-Link.com,2013-11-22 15:53:00,
2013-11-22 11:08:00,41.5,39.9,30.01,SSE,157,0.0,-999.0,94,-99.99,,,0.00,Acu-Link.com,2013-11-22 16:08:00,
2013-11-22 11:24:00,41.7,40.1,30.00,SSE,157,0.0,-999.0,94,-99.99,,,0.00,Acu-Link.com,2013-11-22 16:24:00,
2013-11-22 11:39:00,41.9,40.3,29.99,SSW,202,1.1,-999.0,94,-99.99,,,0.00,Acu-Link.com,2013-11-22 16:39:00,
2013-11-22 11:54:00,42.3,40.7,29.97,SSW,202,0.0,-999.0,94,-99.99,,,0.00,Acu-Link.com,2013-11-22 16:54:00,
2013-11-22 12:09:00,42.4,40.8,29.96,South,180,0.0,-999.0,94,-99.99,,,0.00,Acu-Link.com,2013-11-22 17:09:00,
2013-11-22 12:24:00,42.6,41.0,29.96,SSW,202,0.0,-999.0,94,-99.99,,,0.00,Acu-Link.com,2013-11-22 17:24:00,
2013-11-22 12:39:00,42.8,41.2,29.95,South,180,0.0,-999.0,94,-99.99,,,0.00,Acu-Link.com,2013-11-22 17:39:00,
2013-11-22 12:54:00,42.8,41.2,29.94,SSE,157,0.0,-999.0,94,-99.99,,,0.00,Acu-Link.com,2013-11-22 17:54:00,
2013-11-22 13:09:00,43.0,41.4,29.93,South,180,0.0,-999.0,94,-99.99,,,0.00,Acu-Link.com,2013-11-22 18:09:00,
2013-11-22 13:25:00,43.0,41.4,29.93,SE,135,0.0,-999.0,94,-99.99,,,0.00,Acu-Link.com,2013-11-22 18:25:00,
2013-11-22 13:40:00,43.0,41.4,29.92,SSE,157,0.0,-999.0,94,-99.99,,,0.00,Acu-Link.com,2013-11-22 18:40:00,
2013-11-22 13:55:00,43.0,41.4,29.92,East,90,0.0,-999.0,94,-99.99,,,0.00,Acu-Link.com,2013-11-22 18:55:00,
2013-11-22 14:10:00,42.8,41.2,29.91,SE,135,0.0,-999.0,94,-99.99,,,0.00,Acu-Link.com,2013-11-22 19:10:00,
2013-11-22 14:25:00,42.8,41.2,29.92,SE,135,0.0,-999.0,94,-99.99,,,0.00,Acu-Link.com,2013-11-22 19:25:00,
2013-11-22 14:40:00,42.8,41.5,29.91,ESE,112,0.0,-999.0,95,-99.99,,,0.00,Acu-Link.com,2013-11-22 19:40:00,
2013-11-22 14:55:00,42.8,41.5,29.90,SSE,157,2.2,-999.0,95,-99.99,,,0.00,Acu-Link.com,2013-11-22 19:55:00,
2013-11-22 15:10:00,42.8,41.5,29.89,SSE,157,0.0,-999.0,95,-99.99,,,0.00,Acu-Link.com,2013-11-22 20:10:00,
2013-11-22 15:25:00,43.0,41.9,29.89,SSE,157,0.0,-999.0,96,-99.99,,,0.00,Acu-Link.com,2013-11-22 20:25:00,
2013-11-22 15:40:00,43.0,41.9,29.88,ESE,112,0.0,-999.0,96,-99.99,,,0.00,Acu-Link.com,2013-11-22 20:40:00,
2013-11-22 15:56:00,43.0,41.9,29.88,SE,135,0.0,-999.0,96,-99.99,,,0.00,Acu-Link.com,2013-11-22 20:56:00,
2013-11-22 16:11:00,43.0,41.9,29.88,ESE,112,0.0,-999.0,96,-99.99,,,0.00,Acu-Link.com,2013-11-22 21:11:00,
2013-11-22 16:26:00,42.8,41.7,29.87,SSE,157,0.0,-999.0,96,-99.99,,,0.00,Acu-Link.com,2013-11-22 21:26:00,
2013-11-22 16:41:00,42.8,41.7,29.87,SSE,157,0.0,-999.0,96,-99.99,,,0.00,Acu-Link.com,2013-11-22 21:41:00,
2013-11-22 16:56:00,42.8,41.7,29.87,ESE,112,0.0,-999.0,96,-99.99,,,0.00,Acu-Link.com,2013-11-22 21:56:00,
2013-11-22 17:11:00,42.8,41.7,29.87,ESE,112,0.0,-999.0,96,-99.99,,,0.00,Acu-Link.com,2013-11-22 22:11:00,
2013-11-22 17:26:00,42.8,41.7,29.86,ESE,112,0.0,-999.0,96,-99.99,,,0.00,Acu-Link.com,2013-11-22 22:26:00,
2013-11-22 17:42:00,42.8,42.0,29.87,ESE,112,0.0,-999.0,97,-99.99,,,0.00,Acu-Link.com,2013-11-22 22:42:00,
2013-11-22 17:57:00,42.8,42.0,29.86,ESE,112,0.0,-999.0,97,-99.99,,,0.00,Acu-Link.com,2013-11-22 22:57:00,
2013-11-22 18:12:00,42.8,42.0,29.86,SSW,202,0.0,-999.0,97,-99.99,,,0.00,Acu-Link.com,2013-11-22 23:12:00,
2013-11-22 18:27:00,42.8,42.0,29.86,WNW,292,0.0,-999.0,97,-99.99,,,0.00,Acu-Link.com,2013-11-22 23:27:00,
2013-11-22 18:42:00,42.8,42.0,29.85,SE,135,0.0,-999.0,97,-99.99,,,0.00,Acu-Link.com,2013-11-22 23:42:00,
2013-11-22 18:57:00,42.8,42.0,29.84,ESE,112,0.0,-999.0,97,-99.99,,,0.00,Acu-Link.com,2013-11-22 23:57:00,
2013-11-22 19:12:00,42.8,42.0,29.83,NNE,22,0.0,-999.0,97,-99.99,,,0.00,Acu-Link.com,2013-11-23 00:12:00,
2013-11-22 19:30:00,42.8,42.0,29.82,SE,135,0.0,-999.0,97,-99.99,,,0.00,Acu-Link.com,2013-11-23 00:30:00,
2013-11-22 19:45:00,42.8,42.0,29.83,SE,135,0.0,-999.0,97,-99.99,,,0.00,Acu-Link.com,2013-11-23 00:45:00,
2013-11-22 20:00:00,42.8,42.0,29.83,NNE,22,0.0,-999.0,97,-99.99,,,0.00,Acu-Link.com,2013-11-23 01:00:00,
2013-11-22 20:15:00,42.8,42.0,29.83,SW,225,0.0,-999.0,97,-99.99,,,0.00,Acu-Link.com,2013-11-23 01:15:00,
2013-11-22 20:30:00,42.8,42.0,29.84,West,270,0.0,-999.0,97,-99.99,,,0.00,Acu-Link.com,2013-11-23 01:30:00,
2013-11-22 20:46:00,42.8,42.0,29.84,SW,225,0.0,-999.0,97,-99.99,,,0.00,Acu-Link.com,2013-11-23 01:46:00,
2013-11-22 21:01:00,43.0,42.5,29.85,East,90,1.7,-999.0,98,-99.99,,,0.00,Acu-Link.com,2013-11-23 02:01:00,
2013-11-22 21:16:00,43.3,42.8,29.86,NE,45,1.1,-999.0,98,-99.99,,,0.00,Acu-Link.com,2013-11-23 02:16:00,
2013-11-22 21:31:00,43.9,43.4,29.86,ENE,67,0.0,-999.0,98,-99.99,,,0.00,Acu-Link.com,2013-11-23 02:31:00,
2013-11-22 21:46:00,44.2,43.4,29.87,WNW,292,4.2,-999.0,97,-99.99,,,0.00,Acu-Link.com,2013-11-23 02:46:00,
2013-11-22 22:01:00,46.2,41.9,29.89,West,270,9.4,-999.0,85,-99.99,,,0.00,Acu-Link.com,2013-11-23 03:01:00,
2013-11-22 22:16:00,45.9,39.8,29.90,WSW,247,5.3,-999.0,79,-99.99,,,0.00,Acu-Link.com,2013-11-23 03:16:00,
2013-11-22 22:31:00,45.5,39.4,29.91,SW,225,1.7,-999.0,79,-99.99,,,0.00,Acu-Link.com,2013-11-23 03:31:00,
2013-11-22 22:46:00,45.0,36.9,29.92,West,270,1.7,-999.0,73,-99.99,,,0.00,Acu-Link.com,2013-11-23 03:46:00,
2013-11-22 23:02:00,44.1,35.7,29.92,West,270,3.2,-999.0,72,-99.99,,,0.00,Acu-Link.com,2013-11-23 04:02:00,
2013-11-22 23:17:00,43.3,33.8,29.94,SSW,202,0.0,-999.0,69,-99.99,,,0.00,Acu-Link.com,2013-11-23 04:17:00,
2013-11-22 23:32:00,42.4,32.6,29.94,NE,45,4.7,-999.0,68,-99.99,,,0.00,Acu-Link.com,2013-11-23 04:32:00,
2013-11-22 23:47:00,41.5,31.7,29.95,WNW,292,4.7,-999.0,68,-99.99,,,0.00,Acu-Link.com,2013-11-23 04:47:00,